This is the latest recevied weather packets stored in our database for station/object LKKU. If no packets are shown the sender has not sent any weather packets the latest 10 day(s).
| Time | Temp. | Humidity | Pressure | Rain* | Wind** | Luminosity | Snow |
|---|---|---|---|---|---|---|---|
| 1788597779 | 17.22° C | 88% | 1019 hPa | - | - | - | - |
| 1788595361 | 17.22° C | 88% | 1019 hPa | - | - | - | - |
| 1788593884 | 17.22° C | 88% | 1018 hPa | - | - | - | - |
| 1788591786 | 17.22° C | 82% | 1018 hPa | - | - | - | - |
| 1788526995 | 28.89° C | 39% | 1014 hPa | - | - | - | - |
| 1788523394 | 27.78° C | 42% | 1015 hPa | - | - | - | - |
| 1788519786 | 27.78° C | 42% | 1016 hPa | - | - | - | - |
| 1788515525 | 26.11° C | 47% | 1017 hPa | - | - | - | - |
| 1788508987 | 22.78° C | 56% | 1018 hPa | - | - | - | - |
| 1788505386 | 21.11° C | 64% | 1019 hPa | - | - | - | - |
| 1788501793 | 18.89° C | 72% | 1018 hPa | - | - | - | - |
| 1788498186 | 17.22° C | 77% | 1018 hPa | - | - | - | - |
| 1788440586 | 25° C | 41% | 1018 hPa | - | - | - | - |
| 1788432545 | 23.89° C | 53% | 1019 hPa | - | - | - | - |
| 1788429786 | 22.22° C | 56% | 1020 hPa | - | - | - | - |
| 1788429318 | 22.22° C | 56% | 1020 hPa | - | - | - | - |
| 1788426186 | 20° C | 68% | 1020 hPa | - | - | - | - |
| 1788422649 | 18.89° C | 68% | 1020 hPa | - | - | - | - |
| 1788418987 | 17.22° C | 77% | 1020 hPa | - | - | - | - |
| 1788415385 | 15° C | 87% | 1020 hPa | - | - | - | - |
| 1788411793 | 12.78° C | 93% | 1020 hPa | - | - | - | - |
| 1788357768 | 26.11° C | 34% | 1019 hPa | - | - | - | - |
| 1788354186 | 27.22° C | 32% | 1019 hPa | - | - | - | - |
| 1788350587 | 26.11° C | 34% | 1020 hPa | - | - | - | - |
| 1788346985 | 27.22° C | 34% | 1020 hPa | - | - | - | - |
* Rain since midnight (hover to see other rain measurements)
** Current wind speed in m/s (hover to see current wind gust speed)